Starlink 35318

operational
NORAD ID: 66146 Int'l Des: 2025-240 Owner: SPXS Country: US Constellation: starlink
LEOCIRCULAR

关于 Starlink 35318

正在加载描述...

实时位置

正在加载3D地球...

即将过境

高度历史

Altitude vs Time

uPlot chart will show altitude changes over time

两行轨道根数

1 66146U 25240A 25350.59926703 .00019586 00000-0 67164-3 0 9998
2 66146 53.1624 88.9943 0001121 52.8542 307.2561 15.30200426 9318
Epoch: Dec 16, 2025 • Age: 17 hours

当前状态

高度 491.0 km
速度 7.62 km/s
星下点 -45.69°S, 160.46°W
发射日期 Oct 25, 2025
运行时间 0.1 years
类型 internet

技术详情

分类 Payload
质量 575.00 kg
干质量 530.00 kg
总质量 575.00 kg
长度 0.30 m
直径 4.10 m
跨度 29.00 m
形状 Box + pan
制造商 SPXS
平台类型 Starlink V2MO
阶段状态 In Orbit
所有者/国家 SPXS/US

大型星座

Loading constellations...